STARLINK-1552, 46076

Orbit data source: Space-Track

STARLINK-1552, 46076 is a payload satellite owned by SpaceX/Seattle (US) in LEO that was launched on Fri, 07 Aug 2020 UTC via an FALCON 9 launch vehicle from the Air Force Eastern Test Range (AFETR). Payload-class satellites include a variety of spacecraft equipped with specific instruments for various scientific and technological missions. These include communications satellites like Starlink; space stations such as the ISS; scientific satellites like the Hubble; Earth observation satellites from companies like Planet Labs, Umbra, and HawkEye 360; GPS; miniature CubeSats for education and research; and military/defense satellites.

Loading next visibility...
Identifier
46076, 2020-055BB
Orbit
LEO
Country
Flag of USUS
Related business
Manufacturer
SpaceX/Seattle
Mission
Operational Commercial Communications
Bus & Motor
STARLINK, Unknown motor
Mass
260 kg wet, ~248 kg dry
Launch date (UTC)
2020-08-07 (6 years ago)
Launch vehicle
FALCON 9
Launch site
Air Force Eastern Test Range (AFETR)
Object type
Payload
Rocket body
Debris
Shape & HBR
Box + 1 Pan, 10.1 m
Radar Cross Section
13.562 m², Large (>1 m²)

Expand to show TLE details & history
Last TLE update: 1 day ago

TLE from 1 day ago
0 STARLINK-1552
1 46076U 20055BB  26265.28551246  .00000232  00000-0  19228-4 0  9992
2 46076  53.1591 266.3594 0001283  86.2584 273.8564 15.31702222339343
Epoch: 2026-09-22T06:51Z
TLE epoch observation values (Epoch: 2026-09-22T06:51:08.276Z)
Latitude
-0.00003°
Longitude
162.42171°
Altitude
471.575 km
Speed
7.632 km/s
True Right ascension
17h 45m 26s
True Declination
0° 00' 00"
Sunlit
Object was in daylight at epoch
Visualization orbit readout
Latitude
Unknown
Longitude
Unknown
Altitude
Unknown
Speed
Unknown
Apparent Right ascension
Unknown
Apparent Declination
Unknown
Sunlit
N/A
Visualization observer readout
Local Sidereal Time
03:07:34
Azimuth
Unknown
Elevation
Unknown
Doppler factor
Unknown
Orbital elements
Apogee altitude
471.869 km
Perigee altitude
470.111 km
Semi-major axis
6,849.127 km
Eccentricity
0.00013
Inclination
53.1591°
RAAN
266.3594°
Arg. of periapsis
86.2584°
True anomaly
273.84173°
Mean anomaly
273.8564°
Eccentric anomaly
273.84907°
Mean motion
3.82904 °/min
Orbital period
94.02 mins
BSTAR
0.000019228
Loading maneuver chart data...
Computing Atmospheric mass density...

Documentation

Showing up to 5 results
|